Location: Te Maire Creek
(41.1333°S, 175.9167°E)
Time: 16:25:40
(UTC+00:00)

SL-08 R/B - Pass Details

Date: 19 May 2024
Orbit: 949 x 1018 km, 82.9° (Epoch: 11 June)

Event Time Altitude Azimuth Distance (km) Brightness Sun altitude
Rises 17:08:00 0° 190° (S) 3,708 7.4 -25.0°
Reaches altitude 10° 17:10:32 10° 192° (SSW) 2,763 6.7 -24.5°
Maximum altitude 17:16:50 70° 274° (W) 1,065 4.4 -23.3°
Drops below altitude 10° 17:23:10 10° 356° (N) 2,777 6.9 -22.2°
Sets 17:25:43 0° 358° (N) 3,727 7.6 -21.7°
